TimeEDT,TemperatureF,Dew PointF,Humidity,Sea Level PressureIn,VisibilityMPH,Wind Direction,Wind SpeedMPH,Gust SpeedMPH,PrecipitationIn,Events,Conditions,WindDirDegrees,DateUTC
12:54 AM,52.0,48.9,89,30.15,10.0,North,3.5,-,N/A,,Overcast,360,2012-10-08 04:54:00
12:57 AM,51.8,48.2,88,30.15,10.0,North,4.6,-,N/A,,Overcast,360,2012-10-08 04:57:00
1:46 AM,51.8,48.2,88,30.15,10.0,North,5.8,-,N/A,,Overcast,350,2012-10-08 05:46:00
1:54 AM,52.0,48.0,86,30.15,10.0,North,8.1,-,N/A,,Overcast,350,2012-10-08 05:54:00
2:54 AM,52.0,46.9,83,30.17,10.0,NNW,5.8,-,N/A,,Overcast,340,2012-10-08 06:54:00
3:54 AM,52.0,46.9,83,30.16,10.0,North,10.4,-,N/A,,Overcast,360,2012-10-08 07:54:00
4:54 AM,51.1,45.0,80,30.18,10.0,North,10.4,-,N/A,,Overcast,10,2012-10-08 08:54:00
6:54 AM,50.0,43.0,77,30.22,10.0,North,8.1,-,N/A,,Overcast,10,2012-10-08 10:54:00
7:54 AM,50.0,42.1,74,30.22,10.0,NNE,5.8,-,N/A,,Overcast,20,2012-10-08 11:54:00
8:54 AM,51.1,44.1,77,30.24,10.0,NNE,5.8,-,N/A,,Overcast,20,2012-10-08 12:54:00
9:54 AM,52.0,46.0,80,30.25,10.0,North,4.6,-,N/A,,Overcast,360,2012-10-08 13:54:00
10:54 AM,55.0,48.9,80,30.24,10.0,NNE,3.5,-,N/A,,Overcast,20,2012-10-08 14:54:00
11:43 AM,55.4,46.4,72,30.24,10.0,NE,9.2,-,N/A,,Overcast,40,2012-10-08 15:43:00
11:54 AM,55.9,46.9,72,30.24,10.0,NE,6.9,-,N/A,,Overcast,40,2012-10-08 15:54:00
12:04 PM,55.4,46.4,72,30.24,10.0,NE,5.8,-,N/A,,Overcast,40,2012-10-08 16:04:00
12:32 PM,55.4,46.4,72,30.23,10.0,NE,6.9,-,N/A,,Overcast,40,2012-10-08 16:32:00
12:54 PM,54.0,48.0,80,30.22,5.0,NNE,6.9,-,0.01,Rain,Light Rain,20,2012-10-08 16:54:00
1:54 PM,54.0,48.9,83,30.20,10.0,North,5.8,-,0.01,,Overcast,10,2012-10-08 17:54:00
2:19 PM,53.6,50.0,88,30.17,3.0,NNE,8.1,-,0.02,Rain,Light Rain,20,2012-10-08 18:19:00
2:54 PM,54.0,50.0,86,30.17,8.0,NNE,6.9,-,0.02,Rain,Light Rain,20,2012-10-08 18:54:00
3:14 PM,53.6,50.0,88,30.18,6.0,North,8.1,-,0.01,Rain,Light Rain,350,2012-10-08 19:14:00
3:29 PM,53.6,50.0,88,30.19,1.8,North,9.2,-,0.05,Rain,Rain,360,2012-10-08 19:29:00
3:54 PM,53.1,50.0,89,30.17,3.0,NNE,10.4,19.6,0.12,Rain,Light Rain,20,2012-10-08 19:54:00
4:04 PM,53.6,50.0,88,30.17,3.0,NNE,6.9,-,0.02,Rain,Rain,20,2012-10-08 20:04:00
4:21 PM,53.6,50.0,88,30.16,2.0,NNE,8.1,-,0.06,Rain,Rain,30,2012-10-08 20:21:00
4:23 PM,53.6,50.0,88,30.16,1.8,NNE,9.2,-,0.07,Rain,Rain,30,2012-10-08 20:23:00
4:30 PM,53.6,50.0,88,30.18,2.0,North,6.9,-,0.08,Rain,Rain,10,2012-10-08 20:30:00
4:37 PM,53.6,50.0,88,30.15,2.0,NNE,9.2,16.1,0.10,Rain,Rain,30,2012-10-08 20:37:00
4:44 PM,53.6,50.0,88,30.16,1.8,NNE,9.2,18.4,0.13,Rain,Rain,20,2012-10-08 20:44:00
4:54 PM,53.1,50.0,89,30.16,1.8,North,12.7,-,0.17,Rain,Rain,10,2012-10-08 20:54:00
5:03 PM,53.6,50.0,88,30.17,2.5,North,8.1,-,0.02,Rain,Rain,10,2012-10-08 21:03:00
5:11 PM,53.6,50.0,88,30.17,2.5,North,10.4,-,0.04,Rain,Rain,10,2012-10-08 21:11:00
5:54 PM,53.1,50.0,89,30.15,2.5,North,9.2,-,0.16,Rain,Rain,10,2012-10-08 21:54:00
6:32 PM,53.6,50.0,88,30.16,2.5,NNE,6.9,-,0.15,Rain,Rain,30,2012-10-08 22:32:00
6:54 PM,53.1,51.1,93,30.16,5.0,NNE,5.8,-,0.17,Rain,Light Rain,20,2012-10-08 22:54:00
7:31 PM,53.6,51.8,94,30.15,10.0,NNE,6.9,-,0.01,,Overcast,30,2012-10-08 23:31:00
7:47 PM,53.6,51.8,94,30.15,10.0,NNE,8.1,-,0.01,,Overcast,30,2012-10-08 23:47:00
7:54 PM,54.0,51.1,90,30.15,10.0,NE,5.8,-,0.01,,Overcast,40,2012-10-08 23:54:00
8:54 PM,54.0,51.1,90,30.15,10.0,NNE,6.9,-,0.00,,Overcast,30,2012-10-09 00:54:00
9:54 PM,55.0,51.1,86,30.14,10.0,NNE,6.9,-,N/A,,Overcast,30,2012-10-09 01:54:00
10:54 PM,55.9,51.1,84,30.14,10.0,NNE,8.1,-,N/A,,Overcast,20,2012-10-09 02:54:00
11:18 PM,55.4,51.8,88,30.14,10.0,NNW,5.8,-,N/A,,Overcast,340,2012-10-09 03:18:00
11:54 PM,55.0,52.0,89,30.12,4.0,North,4.6,-,N/A,,Overcast,360,2012-10-09 03:54:00